Regional Weather Roundup
Issued by NWS Little Rock, AR

Home | Current Version | Previous Version | Graphics & Text | Print | Product List | Glossary On
Versions: 1 2 3 4 5 6 7 8 9 10 11 12 13 14 15 16 17 18 19 20 21 22 23 24 25 26 27 28 29 30 31
000
ASUS44 KLZK 231605
RWRLZK

WEATHER ROUNDUP FOR ARKANSAS
NATIONAL WEATHER SERVICE LITTLE ROCK AR
1000 AM CST THU FEB 23 2017

NOTE: "FAIR" INDICATES FEW OR NO CLOUDS BELOW 12,000 FEET WITH NO
SIGNIFICANT WEATHER AND/OR OBSTRUCTIONS TO VISIBILITY.

ARZ001-003-010-029-231700-
NORTHWEST ARKANSAS

CITY           SKY/WX    TMP DP  RH WIND       PRES   REMARKS
FAYETTEVILLE   MOSUNNY   67  53  61 S16G25    29.63F
FORT SMITH     SUNNY     66  55  67 E10       29.65F
HARRISON       MOSUNNY   63  56  78 S17       29.69F
BENTONVILLE    CLOUDY    66  52  59 S13G18    29.63F
ROGERS         MOSUNNY   66  54  65 SE9       29.64F
SILOAM SPGS    PTSUNNY   70  50  49 S20G26    29.61F
HIGHFILL       MOSUNNY   68  52  56 S16       29.62F
SPRINGDALE     SUNNY     66  54  63 S16       29.65F
$$

ARZ004-005-016-231700-
NORTH CENTRAL ARKANSAS

CITY           SKY/WX    TMP DP  RH WIND       PRES   REMARKS
BATESVILLE     MOSUNNY   63  54  72 S9        29.77S
FLIPPIN        MOSUNNY   63  54  72 SE8       29.68F
MTN HOME       MOSUNNY   62  56  80 S12       29.70F
$$

ARZ040-041-231700-
WEST CENTRAL ARKANSAS

CITY           SKY/WX    TMP DP  RH WIND       PRES   REMARKS
MENA           SUNNY     73  50  43 S7        29.71F
MOUNT IDA      SUNNY     68  51  54 MISG      29.70F
$$

ARZ009-017-025-026-028-231700-
NORTHEAST ARKANSAS

CITY           SKY/WX    TMP DP  RH WIND       PRES   REMARKS
CORNING        CLOUDY    59  59 100 S10       29.78F
JONESBORO      SUNNY     62  58  86 S9        29.78F
WALNUT RIDGE   PTSUNNY   61  55  82 S13       29.77F
BLYTHEVILLE    SUNNY     67  59  75 S12       29.80F
NW BLYTHEVILLE MOSUNNY   68  59  73 S14       29.79F
$$

ARZ022-023-033-042-044-231700-
CENTRAL ARKANSAS

CITY           SKY/WX    TMP DP  RH WIND       PRES   REMARKS
LITTLE ROCK    MOSUNNY   63  58  83 S10       29.77F
N LITTLE ROCK    N/A     62  57  84 S6        29.77F
JACKSONVILLE   SUNNY     60  60 100 S6        29.76F
SEARCY         CLOUDY    60  60 100 VRB5      29.79F
HOT SPRINGS    SUNNY     63  56  78 SE8       29.76F
RUSSELLVILLE   SUNNY     61  56  83 SE6       29.72F
CLINTON        FAIR      61  57  88 CALM      29.76S
$$

ARZ036-231700-
EAST ARKANSAS

CITY           SKY/WX    TMP DP  RH WIND       PRES   REMARKS
WEST MEMPHIS   SUNNY     67  60  78 S12       29.79S
$$

ARZ050-053-066-070-073-231700-
SOUTHWEST ARKANSAS

CITY           SKY/WX    TMP DP  RH WIND       PRES   REMARKS
ARKADELPHIA    FAIR      63  57  81 SW5       29.77F
CAMDEN         SUNNY     66  55  68 S7        29.77F
TEXARKANA      SUNNY     67  54  63 S10       29.74S
EL DORADO      SUNNY     67  57  70 S10       29.79F
DE QUEEN       SUNNY     66  57  72 VRB5      29.70F
$$

ARZ056-057-069-231700-
SOUTHEAST ARKANSAS

CITY           SKY/WX    TMP DP  RH WIND       PRES   REMARKS
PINE BLUFF     SUNNY     66  57  72 S13       29.79F
STUTTGART      SUNNY     64  54  68 S14       29.80S
MONTICELLO     SUNNY     67  57  70 S9        29.80S

$$






USA.gov is the U.S. government's official web portal to all federal, state and local government web resources and services.